Weather History for Lee's Summit, MO

Change the Weather History Date:

Sunday, December 9, 2012

  Actual Average (KMKC) Record (KMKC)
Temperature  
Mean Temperature 32 °F -  
Max Temperature 43 °F 43 °F 59 °F (2008)
Min Temperature 21 °F 27 °F 1 °F (2005)
Degree Days  
Heating Degree Days 33    
Moisture  
Dew Point 31 °F    
Average Humidity 83    
Maximum Humidity 100    
Minimum Humidity 54    
Precipitation  
Precipitation 0.00 in - - ()
Sea Level Pressure  
Sea Level Pressure 29.92 in    
Wind  
Wind Speed 8 mph (NNW)    
Max Wind Speed 23 mph    
Max Gust Speed 28 mph    
Visibility 5 miles    
Events Fog    
Averages and records for this station are not official NWS values.
T = Trace of Precipitation, MM = Missing Value Source: NWS Daily Summary

Daily Weather History Graph

Daily Weather History Graph

Search for Another Location

Airport:

Trip Planner

Search our weather history database for the weather conditions in past years. The results will help you decide how hot, cold, wet, or windy it might be!

Date:

Astronomy

Dec. 09, 2012 Rise Set
Actual Time 7:24 AM CST 4:55 PM CST
Civil Twilight 6:55 AM CST 5:25 PM CST
Nautical Twilight 6:21 AM CST 5:58 PM CST
Astronomical Twilight 5:49 AM CST 6:30 PM CST
Moon 3:00 AM CST (12/9) 2:01 PM CST (12/9)
Length of Visible Light 10h 29m
Length of Day
9h 30m
Waning Crescent, 18% of the Moon is Illuminated
Dec 9
Waning Crescent
Dec 13
New
Dec 19
First Quarter
Dec 28
Full
Jan 4
Last Quarter

Hourly Weather History & Observations

Time (CST) Temp. Windchill Dew Point Humidity Pressure Visibility Wind Dir Wind Speed Gust Speed Precip Events Conditions
12:53 AM 39.0 °F 35.7 °F 37.9 °F 96% 29.88 in 5.0 mi ENE 4.6 mph - N/A   Overcast
1:16 AM 39.2 °F 35.9 °F 37.4 °F 93% 29.86 in 4.0 mi East 4.6 mph - N/A   Overcast
1:53 AM 39.0 °F 35.7 °F 37.9 °F 96% 29.86 in 2.5 mi East 4.6 mph - N/A   Overcast
2:09 AM 39.2 °F 37.0 °F 37.4 °F 93% 29.84 in 1.8 mi East 3.5 mph - N/A   Overcast
2:53 AM 39.0 °F 36.8 °F 39.0 °F 100% 29.86 in 1.2 mi ENE 3.5 mph - N/A   Overcast
3:03 AM 39.2 °F - 37.4 °F 93% 29.84 in 0.8 mi Calm Calm - N/A   Mist
3:53 AM 39.9 °F 36.7 °F 37.9 °F 93% 29.85 in 0.8 mi NNE 4.6 mph - N/A   Mist
4:34 AM 39.2 °F 37.0 °F 37.4 °F 93% 29.82 in 0.2 mi North 3.5 mph - N/A Fog Fog
4:53 AM 39.0 °F 36.8 °F 37.9 °F 96% 29.85 in 0.2 mi North 3.5 mph - N/A Fog Fog
5:53 AM 39.0 °F - 39.0 °F 100% 29.87 in 0.2 mi Calm Calm - N/A Fog Fog
6:29 AM 39.2 °F 35.0 °F 37.4 °F 93% 29.85 in 0.2 mi NNW 5.8 mph - N/A Fog Fog
6:37 AM 39.2 °F 33.6 °F 37.4 °F 93% 29.84 in 0.2 mi North 8.1 mph - N/A Fog Fog
6:50 AM 39.2 °F 34.2 °F 39.2 °F 100% 29.85 in 0.2 mi NNW 6.9 mph - N/A Fog Fog
6:53 AM 39.9 °F 35.1 °F 39.0 °F 97% 29.87 in 0.2 mi NNW 6.9 mph - N/A Fog Fog
7:23 AM 39.2 °F 35.0 °F 39.2 °F 100% 29.87 in 0.5 mi NW 5.8 mph - N/A Fog Fog
7:37 AM 39.2 °F 34.2 °F 37.4 °F 93% 29.87 in 1.8 mi NW 6.9 mph - N/A   Overcast
7:44 AM 39.2 °F 35.0 °F 37.4 °F 93% 29.88 in 2.0 mi NW 5.8 mph - N/A   Overcast
7:53 AM 39.0 °F 35.7 °F 37.9 °F 96% 29.89 in 1.8 mi NW 4.6 mph - N/A   Overcast
8:48 AM 39.2 °F 33.6 °F 39.2 °F 100% 29.87 in 2.0 mi NNW 8.1 mph - N/A   Overcast
8:53 AM 39.9 °F 35.1 °F 39.0 °F 97% 29.89 in 2.5 mi NW 6.9 mph - N/A   Overcast
9:01 AM 39.2 °F 33.0 °F 39.2 °F 100% 29.88 in 4.0 mi NW 9.2 mph - N/A   Overcast
9:15 AM 39.2 °F 33.0 °F 39.2 °F 100% 29.89 in 4.0 mi NW 9.2 mph - N/A   Overcast
9:53 AM 39.9 °F 33.9 °F 39.0 °F 97% 29.91 in 6.0 mi NW 9.2 mph - N/A   Overcast
10:11 AM 41.0 °F 36.4 °F 39.2 °F 93% 29.90 in 6.0 mi NW 6.9 mph - N/A   Overcast
10:53 AM 43.0 °F 37.7 °F 39.0 °F 86% 29.93 in 6.0 mi NW 9.2 mph - N/A   Overcast
12:50 PM 42.8 °F 36.2 °F 37.4 °F 81% 29.89 in 7.0 mi NW 12.7 mph 19.6 mph N/A   Overcast
12:53 PM 43.0 °F 36.8 °F 37.0 °F 80% 29.91 in 8.0 mi NW 11.5 mph - N/A   Overcast
1:53 PM 43.0 °F 36.0 °F 33.1 °F 68% 29.92 in 10.0 mi NW 13.8 mph 20.7 mph N/A   Mostly Cloudy
2:10 PM 42.8 °F 34.5 °F 32.0 °F 66% 29.89 in 10.0 mi WNW 18.4 mph 23.0 mph N/A   Scattered Clouds
2:53 PM 41.0 °F 32.5 °F 28.9 °F 62% 29.93 in 10.0 mi NNW 17.3 mph 23.0 mph N/A   Partly Cloudy
3:53 PM 39.0 °F 29.6 °F 25.0 °F 57% 29.95 in 10.0 mi NW 18.4 mph 25.3 mph N/A   Clear
4:53 PM 33.1 °F 22.6 °F 19.9 °F 59% 30.00 in 10.0 mi NW 16.1 mph - N/A   Clear
5:53 PM 28.9 °F 15.1 °F 15.1 °F 56% 30.03 in 10.0 mi WNW 23.0 mph 27.6 mph N/A   Clear
6:53 PM 28.0 °F 16.1 °F 14.0 °F 56% 30.04 in 10.0 mi WNW 16.1 mph 21.9 mph N/A   Clear
7:53 PM 26.1 °F 12.7 °F 12.9 °F 58% 30.05 in 10.0 mi NW 18.4 mph 26.5 mph N/A   Clear
8:36 PM 24.8 °F 11.9 °F 14.0 °F 64% 30.03 in 10.0 mi NW 16.1 mph 21.9 mph N/A   Mostly Cloudy
8:53 PM 25.0 °F 11.3 °F 12.9 °F 60% 30.07 in 10.0 mi NW 18.4 mph 24.2 mph N/A   Overcast
9:43 PM 24.8 °F 11.1 °F 10.4 °F 54% 30.05 in 10.0 mi WNW 18.4 mph 27.6 mph N/A   Partly Cloudy
9:53 PM 23.0 °F 9.2 °F 10.9 °F 60% 30.09 in 10.0 mi NW 17.3 mph 24.2 mph N/A   Scattered Clouds
10:53 PM 21.9 °F 7.8 °F 10.9 °F 63% 30.08 in 10.0 mi NW 17.3 mph 23.0 mph N/A   Clear
11:53 PM 21.0 °F 8.1 °F 10.0 °F 63% 30.08 in 10.0 mi WNW 13.8 mph - N/A   Partly Cloudy